Regional Weather Roundup
Issued by NWS

Home | Current Version | Previous Version | Graphics & Text | Print | Product List | Glossary On
Versions: 1 2 3 4 5 6 7 8 9 10 11 12 13 14 15 16 17 18 19 20 21 22 23 24 25 26 27 28 29 30 31 32 33 34 35 36 37 38 39 40 41 42 43 44 45 46 47 48 49 50
000
ASUS43 KFSD 142302
RWRSD

WEATHER ROUNDUP FOR SOUTH DAKOTA
NATIONAL WEATHER SERVICE SIOUX FALLS SD
500 PM CST SUN FEB 14 2016

NOTE: "FAIR" INDICATES FEW OR NO CLOUDS BELOW 12,000 FEET WITH NO
SIGNIFICANT WEATHER AND/OR OBSTRUCTIONS TO VISIBILITY.


SDZ001>005-009-010-012>017-150000-
NORTHWEST AND NORTH CENTRAL SOUTH DAKOTA

CITY           SKY/WX    TMP DP  RH WIND       PRES   REMARKS
BUFFALO          N/A     38  33  82 W14       29.70R
FAITH            N/A     37  31  78 W8        29.76R
MOBRIDGE       CLOUDY    38  31  76 W3        29.71S
$$

SDZ012>016-024>037-041>051-057-063-072>074-150000-
SOUTHWEST AND SOUTH CENTRAL SOUTH DAKOTA

CITY           SKY/WX    TMP DP  RH WIND       PRES   REMARKS
RAPID CTY ARPT CLOUDY    41  34  76 N12       29.78S
PIERRE         CLOUDY    39  33  79 W17       29.76S
CUSTER         CLOUDY    36  20  52 NW20G37   29.76R
ELLSWORTH AFB  CLOUDY    41  34  76 N15       29.77
PHILIP         CLOUDY    38  36  92 W6        29.80S
PINE RIDGE     PTSUNNY   47  27  45 NW14      29.78R
WINNER         CLOUDY    42  30  62 NW13      29.79R
$$

SDZ004>011-016>023-039-040-150000-
NORTHEAST SOUTH DAKOTA

CITY           SKY/WX    TMP DP  RH WIND       PRES   REMARKS
ABERDEEN       CLOUDY    27  22  81 S7        29.76S WCI  19
WATERTOWN      CLOUDY    21  17  84 SW9       29.76S WCI  11
BROOKINGS      CLOUDY    21  17  84 SW8       29.79R WCI  11
SISSETON         N/A     21  16  81 S8        29.78S WCI  11
$$

SDZ017-020-022-023-036>040-048>070-150000-
SOUTHEAST SOUTH DAKOTA

CITY           SKY/WX    TMP DP  RH WIND       PRES   REMARKS
SIOUX FALLS    CLOUDY    22  17  81 S6        29.82R WCI  14
HURON          CLOUDY    29  24  82 SE5       29.78S WCI  24
MITCHELL       CLOUDY    31  26  82 SE5       29.81R WCI  26
YANKTON        CLOUDY    28  23  80 CALM      29.84R
$$

ABBREVIATIONS USED IN REMARKS
   TC - TEMPERATURE IN CELSIUS
  WCI - WIND CHILL INDEX
   HX - HEAT INDEX
  VSB - VISIBILITY




USA.gov is the U.S. government's official web portal to all federal, state and local government web resources and services.